Stanton, MN

11:31 AM CDT on April 24, 2018 (GMT -0500)
Stanton

Weather History for KSYN - April, 2014

Change the Weather History Date:

Thursday, April 10, 2014

  Actual Average (KLVN) Record (KLVN)
Temperature  
Mean Temperature 52 °F -  
Max Temperature 61 °F 54 °F 89 °F (1977)
Min Temperature 41 °F 32 °F 19 °F (1973)
Degree Days  
Heating Degree Days 14    
Growing Degree Days 2 (Base 50)    
Moisture  
Dew Point 30 °F    
Average Humidity 43    
Maximum Humidity 70    
Minimum Humidity 21    
Precipitation  
Precipitation 0.00 in - - ()
Sea Level Pressure  
Sea Level Pressure 29.78 in    
Wind  
Wind Speed 12 mph (WNW)    
Max Wind Speed 26 mph    
Max Gust Speed 33 mph    
Visibility 10 miles    
Events Rain    
Averages and records for this station are not official NWS values.
T = Trace of Precipitation, MM = Missing Value Source: NWS Daily Summary

Daily Weather History Graph

Daily Weather History Graph

Search for Another Location

Airport or City:

Astronomy

Apr. 10, 2014 Rise Set
Actual Time 6:36 AM CDT 7:50 PM CDT
Civil Twilight 6:06 AM CDT 8:20 PM CDT
Nautical Twilight 5:30 AM CDT 8:56 PM CDT
Astronomical Twilight 4:52 AM CDT 9:35 PM CDT
Moon 3:25 PM CDT (4/10) 4:10 AM CDT (4/10)
Length of Visible Light 14h 13m
Length of Day
13h 13m
Waxing Gibbous, 80% of the Moon is Illuminated
Apr 10
Waxing Gibbous
Apr 15
Full
Apr 22
Last Quarter
Apr 29
New
May 6
First Quarter

Hourly Weather History & Observations

Time (CDT) Temp. Windchill Dew Point Humidity Pressure Visibility Wind Dir Wind Speed Gust Speed Precip Events Conditions
12:12 AM 58.3 °F - 39.4 °F 49% 29.52 in 10.0 mi SSW 8.1 mph - N/A   Scattered Clouds
12:32 AM 56.5 °F - 40.1 °F 54% 29.54 in 10.0 mi SW 15.0 mph - N/A   Mostly Cloudy
12:52 AM 61.0 °F - 38.3 °F 43% 29.53 in 10.0 mi WSW 10.4 mph 18.4 mph N/A   Mostly Cloudy
1:12 AM 60.1 °F - 41.0 °F 49% 29.55 in 10.0 mi West 11.5 mph - N/A   Overcast
1:32 AM 59.2 °F - 42.4 °F 54% 29.56 in 10.0 mi West 10.4 mph - N/A   Overcast
1:53 AM 58.3 °F - 43.0 °F 57% 29.58 in 10.0 mi WNW 12.7 mph 20.7 mph N/A Rain Light Rain
2:12 AM 57.7 °F - 42.8 °F 57% 29.59 in 10.0 mi WNW 15.0 mph 21.9 mph N/A   Scattered Clouds
2:32 AM 57.0 °F - 41.0 °F 55% 29.59 in 10.0 mi NW 11.5 mph 19.6 mph N/A   Clear
2:52 AM 54.7 °F - 39.9 °F 58% 29.61 in 10.0 mi NW 13.8 mph - N/A   Clear
3:12 AM 52.5 °F - 39.2 °F 61% 29.62 in 10.0 mi NNW 9.2 mph - N/A   Clear
3:33 AM 52.0 °F - 38.7 °F 60% 29.64 in 10.0 mi NW 16.1 mph 23.0 mph N/A   Clear
3:52 AM 50.9 °F - 38.5 °F 62% 29.64 in 10.0 mi NNW 9.2 mph - N/A   Scattered Clouds
4:12 AM 50.5 °F - 38.7 °F 64% 29.65 in 10.0 mi NNW 5.8 mph - N/A   Mostly Cloudy
4:33 AM 49.1 °F - 38.8 °F 68% 29.65 in 10.0 mi NW 8.1 mph - N/A   Mostly Cloudy
4:52 AM 48.6 °F - 39.2 °F 70% 29.66 in 10.0 mi NW 4.6 mph - N/A   Mostly Cloudy
5:12 AM 49.1 °F - 37.9 °F 65% 29.66 in 10.0 mi NNW 5.8 mph - N/A   Overcast
5:32 AM 48.9 °F - 36.7 °F 63% 29.68 in 10.0 mi WNW 6.9 mph - N/A   Overcast
5:52 AM 49.1 °F - 35.6 °F 60% 29.70 in 10.0 mi WNW 10.4 mph - N/A   Overcast
6:12 AM 48.6 °F - 33.6 °F 56% 29.70 in 10.0 mi NW 9.2 mph - N/A   Overcast
6:32 AM 48.2 °F - 32.2 °F 54% 29.70 in 10.0 mi NW 9.2 mph - N/A   Overcast
6:52 AM 48.0 °F - 32.0 °F 54% 29.71 in 10.0 mi NW 8.1 mph - N/A   Mostly Cloudy
7:12 AM 45.0 °F 40.6 °F 32.7 °F 62% 29.73 in 10.0 mi NW 8.1 mph - N/A   Scattered Clouds
7:32 AM 43.3 °F 39.2 °F 32.2 °F 65% 29.73 in 10.0 mi WNW 6.9 mph - N/A   Clear
7:52 AM 46.6 °F - 33.1 °F 59% 29.75 in 10.0 mi WNW 8.1 mph - N/A   Clear
8:12 AM 48.7 °F - 32.0 °F 52% 29.76 in 10.0 mi WNW 6.9 mph - N/A   Clear
8:32 AM 49.8 °F - 31.3 °F 49% 29.77 in 10.0 mi WNW 11.5 mph - N/A   Clear
8:52 AM 50.2 °F - 30.2 °F 46% 29.77 in 10.0 mi WNW 11.5 mph - N/A   Clear
9:12 AM 51.1 °F - 30.6 °F 45% 29.77 in 10.0 mi WNW 10.4 mph - N/A   Clear
9:32 AM 51.8 °F - 30.0 °F 43% 29.77 in 10.0 mi WNW 11.5 mph - N/A   Clear
9:52 AM 52.9 °F - 30.7 °F 43% 29.78 in 10.0 mi WNW 13.8 mph - N/A   Clear
10:12 AM 54.3 °F - 28.8 °F 38% 29.78 in 10.0 mi NW 13.8 mph - N/A   Clear
10:32 AM 54.1 °F - 27.7 °F 36% 29.79 in 10.0 mi WNW 17.3 mph 21.9 mph N/A   Clear
10:52 AM 55.8 °F - 28.8 °F 36% 29.80 in 10.0 mi West 13.8 mph - N/A   Clear
11:12 AM 57.0 °F - 25.7 °F 30% 29.80 in 10.0 mi WNW 20.7 mph 25.3 mph N/A   Clear
11:32 AM 57.7 °F - 25.0 °F 28% 29.80 in 10.0 mi NW 21.9 mph 32.2 mph N/A   Clear
11:52 AM 58.8 °F - 23.7 °F 26% 29.81 in 10.0 mi NW 23.0 mph 32.2 mph N/A   Clear
12:12 PM 58.5 °F - 23.4 °F 26% 29.81 in 10.0 mi WNW 24.2 mph 31.1 mph N/A   Clear
12:32 PM 59.4 °F - 23.9 °F 26% 29.81 in 10.0 mi NW 24.2 mph 29.9 mph N/A   Clear
12:52 PM 59.4 °F - 23.2 °F 25% 29.81 in 10.0 mi WNW 26.5 mph 33.4 mph N/A   Clear
1:13 PM 59.4 °F - 22.1 °F 24% 29.81 in 10.0 mi WNW 24.2 mph 33.4 mph N/A   Clear
1:32 PM 60.1 °F - 21.9 °F 23% 29.81 in 10.0 mi NW 21.9 mph 33.4 mph N/A   Clear
1:52 PM 60.3 °F - 20.7 °F 22% 29.82 in 10.0 mi WNW 24.2 mph 31.1 mph N/A   Clear
2:12 PM 60.1 °F - 20.8 °F 22% 29.82 in 10.0 mi WNW 17.3 mph 31.1 mph N/A   Clear
2:32 PM 60.1 °F - 21.2 °F 22% 29.83 in 10.0 mi WNW 17.3 mph 31.1 mph N/A   Clear
2:52 PM 60.6 °F - 19.9 °F 21% 29.83 in 10.0 mi WNW 20.7 mph 27.6 mph N/A   Clear
3:12 PM 60.8 °F - 21.2 °F 22% 29.83 in 10.0 mi WNW 19.6 mph 31.1 mph N/A   Clear
3:32 PM 60.8 °F - 21.0 °F 22% 29.83 in 10.0 mi West 24.2 mph 27.6 mph N/A   Clear
3:52 PM 60.6 °F - 22.5 °F 23% 29.83 in 10.0 mi WNW 21.9 mph 27.6 mph N/A   Clear
4:12 PM 60.4 °F - 20.8 °F 22% 29.83 in 10.0 mi WNW 20.7 mph 27.6 mph N/A   Clear
4:32 PM 60.1 °F - 19.9 °F 21% 29.83 in 10.0 mi NW 20.7 mph 25.3 mph N/A   Clear
4:52 PM 60.1 °F - 21.4 °F 23% 29.83 in 10.0 mi NW 17.3 mph 25.3 mph N/A   Clear
5:12 PM 59.7 °F - 21.4 °F 23% 29.84 in 10.0 mi WNW 17.3 mph - N/A   Clear
5:32 PM 59.4 °F - 19.9 °F 22% 29.84 in 10.0 mi NW 16.1 mph 21.9 mph N/A   Clear
5:52 PM 59.0 °F - 22.1 °F 24% 29.85 in 10.0 mi NW 15.0 mph - N/A   Clear
6:12 PM 58.6 °F - 23.7 °F 26% 29.86 in 10.0 mi West 15.0 mph 21.9 mph N/A   Clear
6:32 PM 58.1 °F - 24.3 °F 27% 29.86 in 10.0 mi WNW 17.3 mph 20.7 mph N/A   Clear
6:52 PM 56.1 °F - 24.4 °F 29% 29.86 in 10.0 mi WNW 13.8 mph 17.3 mph N/A   Clear
7:12 PM 54.9 °F - 25.9 °F 33% 29.87 in 10.0 mi WNW 10.4 mph - N/A   Clear
7:32 PM 52.9 °F - 26.2 °F 36% 29.88 in 10.0 mi West 5.8 mph - N/A   Clear
7:52 PM 50.5 °F - 28.9 °F 43% 29.88 in 10.0 mi West 5.8 mph - N/A   Clear
8:12 PM 49.6 °F - 28.0 °F 43% 29.88 in 10.0 mi West 3.5 mph - N/A   Clear
8:32 PM 47.8 °F - 29.3 °F 49% 29.89 in 10.0 mi West 3.5 mph - N/A   Clear
8:52 PM 48.2 °F - 28.0 °F 46% 29.90 in 10.0 mi WSW 3.5 mph - N/A   Clear
9:12 PM 49.6 °F - 27.1 °F 42% 29.91 in 10.0 mi WSW 4.6 mph - N/A   Clear
9:32 PM 45.9 °F 43.6 °F 30.2 °F 54% 29.93 in 10.0 mi SW 4.6 mph - N/A   Clear
9:52 PM 45.3 °F 44.0 °F 30.2 °F 56% 29.93 in 10.0 mi SSW 3.5 mph - N/A   Clear
10:12 PM 42.6 °F 39.9 °F 29.3 °F 59% 29.94 in 10.0 mi South 4.6 mph - N/A   Clear
10:32 PM 45.3 °F 43.0 °F 28.2 °F 51% 29.94 in 10.0 mi South 4.6 mph - N/A   Clear
10:52 PM 44.6 °F 42.2 °F 28.4 °F 53% 29.94 in 10.0 mi SSW 4.6 mph - N/A   Clear
11:12 PM 43.9 °F 41.3 °F 28.4 °F 55% 29.94 in 10.0 mi South 4.6 mph - N/A   Clear
11:32 PM 43.0 °F 40.3 °F 28.6 °F 57% 29.94 in 10.0 mi South 4.6 mph - N/A   Clear
11:52 PM 41.0 °F 38.0 °F 28.6 °F 61% 29.93 in 10.0 mi South 4.6 mph - N/A   Clear